This demonstration page uses our WeatherBlox Daily Observations layout. Learn more.

Hourly Observations for August 20, 2019

Temp ( °F °C ) Dew Point ( °F °C ) Humidity (%) Winds ( mph kmh ) Pressure ( in mb ) Visibility ( mi km ) Precip ( " mm )
12:15 am 00:15 Clear 74 23.2 73 22.9 98 98 E 3 6 29.83 1010 7 11.265408 0 0
12:35 am 00:35 Clear 74 23.2 73 22.8 98 98 E 5 7 29.83 1010 7 11.265408 0 0
12:55 am 00:55 Clear 74 23.2 73 22.6 96 96 E 5 7 29.85 1011 10 16.09344 0 0
1:15 am 01:15 Clear 73 22.7 72 22.3 98 98 Calm 29.85 1011 7 11.265408 0 0
1:35 am 01:35 Clear with Mist and Fog 73 22.5 72 22.3 99 99 Calm 29.85 1011 5 8.04672 0 0
1:55 am 01:55 Clear with Mist and Fog 71 21.9 71 21.9 100 100 ENE 3 6 29.85 1011 4 6.437376 0 0
2:15 am 02:15 Clear with Mist and Fog 71 21.7 71 21.7 100 100 Calm 29.85 1011 2 3.218688 0 0
2:35 am 02:35 Mostly Cloudy with Mist and Fog 70 21 70 21 100 100 Calm 29.85 1011 1.25 2.01168 0 0
2:55 am 02:55 Cloudy with Fog 69 20.7 69 20.7 100 100 Calm 29.85 1011 0.25 0.402336 0 0
3:15 am 03:15 Cloudy with Mist and Fog 68 20 68 20 100 100 Calm 29.85 1011 1 1.609344 0 0
3:35 am 03:35 Mostly Cloudy with Fog 68 19.9 68 19.9 100 100 Calm 29.85 1011 0.5 0.804672 0 0
3:55 am 03:55 Clear with Mist and Fog 67 19.5 67 19.5 100 100 SE 3 6 29.85 1011 2.5 4.02336 0 0
4:15 am 04:15 Clear with Mist and Fog 67 19.6 67 19.6 100 100 Calm 29.85 1011 4 6.437376 0 0
4:35 am 04:35 Mostly Cloudy with Mist and Fog 66 19.1 66 19.1 100 100 Calm 29.88 1012 1.5 2.414016 0 0
4:55 am 04:55 Mostly Cloudy with Fog 67 19.2 67 19.2 100 100 Calm 29.88 1012 0.25 0.402336 0 0
5:15 am 05:15 Clear with Mist and Fog 67 19.7 67 19.7 100 100 ENE 5 7 29.85 1011 3 4.828032 0 0
5:35 am 05:35 Clear with Mist and Fog 67 19.6 67 19.6 100 100 ENE 5 7 29.85 1011 5 8.04672 0 0
5:55 am 05:55 Clear with Mist and Fog 67 19.2 67 19.2 100 100 E 3 6 29.88 1012 4 6.437376 0 0
6:15 am 06:15 Clear with Mist and Fog 65 18.4 65 18.4 100 100 Calm 29.88 1012 4 6.437376 0 0
6:35 am 06:35 Clear with Mist and Fog 64 17.9 64 17.9 100 100 Calm 29.88 1012 5 8.04672 0 0
6:55 am 06:55 Sunny with Mist and Fog 64 17.9 64 17.9 100 100 Calm 29.88 1012 2.5 4.02336 0 0
7:15 am 07:15 Sunny with Mist and Fog 63 17.3 63 17.3 100 100 Calm 29.88 1012 4 6.437376 0 0
7:35 am 07:35 Sunny with Mist and Fog 64 17.7 64 17.7 100 100 Calm 29.91 1013 5 8.04672 0 0
7:55 am 07:55 Mostly Cloudy with Mist and Fog 66 18.9 66 18.9 100 100 Calm 29.91 1013 1.25 2.01168 0 0
8:15 am 08:15 Sunny with Mist and Fog 69 20.6 69 20.5 99 99 Calm 29.88 1012 4 6.437376 0 0
8:35 am 08:35 Sunny with Mist and Fog 72 22 71 21.4 96 96 Calm 29.88 1012 5 8.04672 0 0
8:55 am 08:55 Sunny 73 23 71 21.7 92 92 NNE 3 6 29.88 1012 7 11.265408 0 0
9:15 am 09:15 Sunny 75 23.8 72 22.3 91 91 NE 6 9 29.85 1011 7 11.265408 0 0
9:35 am 09:35 Sunny 76 24.6 72 22.2 87 87 Calm 29.85 1011 10 16.09344 0 0
9:55 am 09:55 Sunny 78 25.7 72 22.3 82 82 NE 3 6 29.88 1012 10 16.09344 0 0
10:15 am 10:15 Sunny 80 26.4 71 21.9 76 76 Calm 29.88 1012 10 16.09344 0 0
10:35 am 10:35 Sunny 81 27 72 22 74 74 Calm 29.85 1011 10 16.09344 0 0
10:55 am 10:55 Sunny 82 27.5 71 21.8 71 71 NNE 3 6 29.85 1011 10 16.09344 0 0
11:15 am 11:15 Sunny 82 28 71 21.9 70 70 E 3 6 29.85 1011 10 16.09344 0 0
11:35 am 11:35 Sunny 84 28.7 72 22.2 68 68 NE 8 13 29.85 1011 10 16.09344 0 0
11:55 am 11:55 Sunny 85 29.7 73 22.7 66 66 ENE 12 19 29.88 1012 10 16.09344 0 0
12:15 pm 12:15 Sunny 87 30.4 74 23.1 65 65 ENE 10 17 29.88 1012 10 16.09344 0 0
12:35 pm 12:35 Sunny 87 30.7 74 23.2 64 64 ENE 12 19 29.83 1010 10 16.09344 0 0
12:55 pm 12:55 Sunny 87 30.8 75 23.8 66 66 E 13 20 29.83 1010 10 16.09344 0 0
1:15 pm 13:15 Sunny 88 31.1 74 23.5 64 64 E 14 22 29.83 1010 10 16.09344 0 0
1:30 pm 13:30 Sunny 89 31.4 73 22.9 61 61 E 16 26 29.85 1011 10 16.09344 0 0
1:55 pm 13:55 Sunny 89 31.4 73 23 61 61 ENE 15 24 29.85 1011 10 16.09344 0 0
2:15 pm 14:15 Sunny 88 31.2 73 22.6 60 60 E 16 26 29.85 1011 10 16.09344 0 0
2:35 pm 14:35 Sunny 88 31.2 73 22.8 61 61 E 17 28 29.85 1011 10 16.09344 0 0
2:55 pm 14:55 Sunny 88 31.2 74 23.4 63 63 E 14 22 29.83 1010 10 16.09344 0 0
3:15 pm 15:15 Sunny 88 31.3 73 23 61 61 E 15 24 29.83 1010 10 16.09344 0 0
3:35 pm 15:35 Sunny 88 31.3 70 21.2 55 55 E 16 26 29.83 1010 10 16.09344 0 0
3:55 pm 15:55 Sunny 88 31 70 21.1 56 56 E 16 26 29.83 1010 10 16.09344 0 0
4:15 pm 16:15 Sunny 88 31.1 71 21.4 56 56 E 12 19 29.83 1010 10 16.09344 0 0
4:35 pm 16:35 Sunny 88 31 71 21.7 58 58 E 16 26 29.83 1010 10 16.09344 0 0
4:55 pm 16:55 Sunny 87 30.5 72 22.1 61 61 E 17 28 29.85 1011 10 16.09344 0 0
5:15 pm 17:15 Sunny 87 30.5 72 22 60 60 E 14 22 29.85 1011 10 16.09344 0 0
5:35 pm 17:35 Sunny 86 30.2 71 21.8 61 61 E 15 24 29.85 1011 10 16.09344 0 0
5:55 pm 17:55 Sunny 85 29.5 72 22.4 66 66 E 13 20 29.85 1011 10 16.09344 0 0
6:10 pm 18:10 Sunny 85 29.6 73 22.6 66 66 E 12 19 29.85 1011 10 16.09344 0 0
6:35 pm 18:35 Sunny 85 29.4 73 22.6 67 67 E 12 19 29.85 1011 10 16.09344 0 0
6:55 pm 18:55 Sunny 84 28.9 72 22.2 67 67 E 14 22 29.85 1011 10 16.09344 0 0
7:15 pm 19:15 Sunny 83 28.4 73 22.6 71 71 E 12 19 29.85 1011 10 16.09344 0 0
7:35 pm 19:35 Sunny 82 27.8 73 22.6 73 73 ENE 13 20 29.85 1011 10 16.09344 0 0
7:55 pm 19:55 Sunny 81 27.3 72 22.3 74 74 ENE 9 15 29.85 1011 10 16.09344 0 0
8:15 pm 20:15 Sunny 78 25.8 73 22.6 83 83 ENE 8 13 29.88 1012 10 16.09344 0 0
8:35 pm 20:35 Clear 77 25.2 73 22.5 85 85 ENE 6 9 29.91 1013 7 11.265408 0 0
8:55 pm 20:55 Clear 76 24.3 73 22.6 90 90 ENE 6 9 29.91 1013 10 16.09344 0 0
9:15 pm 21:15 Partly Cloudy 77 25 74 23.1 89 89 ENE 8 13 29.91 1013 10 16.09344 0 0
9:35 pm 21:35 Partly Cloudy 77 24.9 74 23.2 90 90 ENE 10 17 29.91 1013 10 16.09344 0 0
9:55 pm 21:55 Clear 77 24.8 74 23.2 91 91 ENE 12 19 29.91 1013 10 16.09344 0 0
10:15 pm 22:15 Clear 76 24.7 74 23.2 91 91 E 9 15 29.91 1013 10 16.09344 0 0
10:35 pm 22:35 Clear 76 24.7 74 23.2 91 91 E 9 15 29.91 1013 10 16.09344 0 0
10:55 pm 22:55 Clear 76 24.5 74 23.3 93 93 ENE 8 13 29.91 1013 10 16.09344 0 0
11:15 pm 23:15 Partly Cloudy 75 24.1 74 23.3 95 95 ENE 7 11 29.91 1013 10 16.09344 0 0
11:35 pm 23:35 Clear 75 24 74 23.2 95 95 ENE 9 15 29.91 1013 10 16.09344 0 0
11:55 pm 23:55 Partly Cloudy 75 23.8 74 23.1 96 96 ENE 7 11 29.91 1013 7 11.265408 0 0

Powered by AerisWeather